Погода в Нерчинском Заводе

Россия / Забайкальский край     51°18′42″N   119°36′26″E
темп.,
°C
ветер,
м/с
пор.,
м/с
влажн.,
%
обл.,
%
осадки,
мм/ч
давл.,
гПа
погр.,
м
14 апреля, ср
ср1400:00−6з11320 0.0 101210
03:00−6юз11340 0.0 101110
06:00−7ююз2236100 0.0 101023
09:00−2ююз3523100 0.0 1007448
12:000зюз2368100 0.4 1006829
15:00+5сз5751100 0.6 10031589
18:00+5с683087 0.1 10042199
21:000ссв225055 0.1 100810
15 апреля, чт
чт1500:00−2сз115859 0.0 100910
03:00−3с1164100 0.0 100910
06:00−4ссв1171100 0.0 100910
09:000всв1253100 0.0 1008323
12:00+3в3338100 0.0 10061331
15:00+5св2230100 0.0 10052044
18:00+4ссз3237100 0.0 10061592
21:00+1сз1155100 0.0 100823
16 апреля, пт
пт1600:00−1с2263100 0.1 100926
03:00−2сз2284100 0.4 101022
06:00−4с229212 0.0 101226
09:00+1с376073 0.0 1012844
12:00+5св6828100 0.1 10123007
15:00+6с5723100 0.1 10113414
18:00+6ссв572198 0.0 10122667
21:00+1ссз22322 0.0 101510
17 апреля, сб
сб1700:00−1зсз11360 0.0 101510
03:00−2ююз22410 0.0 101610
06:00−3ююз224431 0.0 101613
09:00+3ююз34283 0.0 1014372
12:00+9ююз56265 0.0 10111349
15:00+13юз57240 0.0 10081810
18:00+15юз47255 0.0 10062098
21:00+8зюз114364 0.0 100810
18 апреля, вс
вс1800:00+6ююз224939 0.0 100812
03:00+4ю33545 0.0 100821
06:00+2ю22590 0.0 100816
09:00+8ю47412 0.0 1006385
12:00+14ююз67286 0.0 1003910
15:00+17ююз452468 0.0 10021720
18:00+16ююз232798 0.0 10021801
21:00+11зсз2237100 0.0 100413